Regional Weather Roundup
Issued by NWS

Home | Current Version | Previous Version | Graphics & Text | Print | Product List | Glossary On
Versions: 1 2 3 4 5 6 7 8 9 10 11 12 13 14 15 16 17 18 19 20 21 22 23 24 25 26 27 28 29 30 31 32 33 34 35 36 37 38 39 40 41 42 43 44 45 46 47 48 49 50
000
ASUS43 KMPX 250101
RWRMN
WEATHER ROUNDUP FOR MINNESOTA
NATIONAL WEATHER SERVICE TWIN CITIES/CHANHASSEN MN
800 PM CDT TUE MAY 24 2016


NOTE: "FAIR" INDICATES FEW OR NO CLOUDS BELOW 12,000 FEET WITH NO
SIGNIFICANT WEATHER AND/OR OBSTRUCTIONS TO VISIBILITY. N/A MEANS
CURRENT SKY AND/OR WEATHER CONDITIONS ARE NOT AVAILABLE.

MNZ060>063-068>070-250200-
   Twin Cities Metro

CITY           SKY/WX    TMP DP  RH WIND       PRES   REMARKS
TWIN CITIES    CLOUDY    80  49  33 NE8       29.87F
ST PAUL        CLOUDY    79  53  40 E3        29.88S
CRYSTAL        PTCLDY    78  55  44 CALM      29.87S
BLAINE         MOCLDY   N/A N/A N/A N5        29.88F
EDEN PRAIRIE   CLOUDY    79  52  38 NW6       29.88R
SOUTH ST PAUL  PTCLDY    80  47  31 N3        29.88R
LAKE ELMO      HAZE      77  55  47 CALM      29.90S VSB 1/2
$$
MNZ001>005-007-008-013>017-022>024-027-028-250200-
   Northwest Minnesota

CITY           SKY/WX    TMP DP  RH WIND       PRES   REMARKS
BEMIDJI        CLEAR     74  43  32 N5        29.89S
HALLOCK        SUNNY     75  46  35 E8        29.86S
ROSEAU         CLEAR     73  50  43 NW6       29.89S
WARROAD        CLEAR     66  57  72 NE8       29.91S
THIEF RVR FALL CLEAR     73  48  40 NW5       29.90R
CROOKSTON      CLEAR     75  48  38 NE3       29.87F
FOSSTON        CLEAR     75  55  50 NE3       29.89S
DETROIT LAKES  CLEAR     73  50  43 NE6       29.89S
MOORHEAD       CLEAR     81  41  24 NE9       29.85R
PARK RAPIDS    PTCLDY    79  45  29 NE8       29.87S
MAHNOMEN       FAIR      73  51  45 NE7       29.87S
$$
MNZ006-009>011-018-025>026-250200-
   North Central Minnesota

CITY           SKY/WX    TMP DP  RH WIND       PRES   REMARKS
BAUDETTE       CLEAR     72  48  42 N7        29.90R
FLAG ISLAND    CLEAR     70  46  43 CALM      29.90S
INTL FALLS     CLEAR     64  51  62 E12G18    29.93R
WASKISH        CLEAR     73  52  46 MISG      29.89S
BIG FORK       CLEAR     75  37  25 NW3       29.90S
LONGVILLE      PTCLDY    73  55  53 CALM      29.89S
CRANE LAKE     CLEAR     66  52  59 N10G17    29.94R
ORR            CLEAR     70  46  43 N3        29.89R
COOK           CLEAR     75  39  27 NW5       29.90R
WALKER         FAIR      73  55  52 CALM      29.89R
$$
MNZ012-019>021-037-250200-
   Northeast Minnesota

CITY           SKY/WX    TMP DP  RH WIND       PRES   REMARKS
DULUTH         FOG       57  55  93 E14       29.95R VSB 1/2
ELY            HAZE      63  55  77 SE12      29.93R VSB 1
HIBBING        CLEAR     74  44  34 W3        29.90R
EVELETH        CLEAR     73  43  33 W3        29.91S
DULUTH HARBOR  LGT RAIN  48  46  93 NE18      29.96R VSB 1/4
TWO HARBORS    CLOUDY    59  54  82 NE12      29.95R
SILVER BAY     CLOUDY    57  54  88 NE8       29.96S
GRAND MARAIS     N/A     53  46  77 NE7       29.97S
G MARAIS ARPRT CLOUDY    57  48  72 E12       30.00F
$$
MNZ029>031-032-039>041-046>048-054>057-064-250200-
   West Central Minnesota

CITY           SKY/WX    TMP DP  RH WIND       PRES   REMARKS
FERGUS FALLS   CLEAR     79  52  38 E8        29.81R
WHEATON        CLEAR     82  52  34 W3        29.83F
MORRIS         CLEAR     81  54  39 SE14      29.82F
ALEXANDRIA     CLEAR     71  54  54 E10       29.89S
ELBOW LAKE     FAIR      77  56  49 SE10      29.84S
WADENA         CLEAR     70  55  60 E6        29.87S
GLENWOOD       CLEAR     73  54  49 E7        29.88S
APPLETON       CLEAR     84  37  18 CALM      29.82F
BENSON         CLEAR     77  55  47 S10       29.84S
ORTONVILLE     CLEAR     84  45  24 NW5       29.83S
MADISON        PTCLDY    82  41  23 CALM      29.83S
WILLMAR        FAIR      75  57  53 SE9       29.86F
$$
MNZ033>034-036-042>043-049>051-058-059-250200-
   Central Minnesota

CITY           SKY/WX    TMP DP  RH WIND       PRES   REMARKS
ST CLOUD       CLEAR     73  57  57 N8        29.89R
SAUK CENTRE    FAIR      71  56  58 E6        29.88S
PAYNESVILLE    CLEAR     75  55  49 E5        29.88R
AITKIN         TSTM      66  54  63 NE12      29.90R
PINE RIVER     CLOUDY    57  55  94 E15G44    29.97R VSB 1/4
BRAINERD       TSTM      61  55  81 VRB7      29.93R
STAPLES        CLOUDY    68  55  64 S6        29.90F
LONG PRAIRIE   MOCLDY    72  52  49 NE8       29.90R
LITTLE FALLS   TSTM      68  54  60 N3G20     29.91R
LITCHFIELD     CLEAR     75  57  53 SE6       29.87S
BUFFALO        PTCLDY    76  60  56 E5        29.88F
MAPLE LAKE     CLEAR     78  60  54 CALM      29.88F
HUTCHINSON     MOCLDY    71  61  70 SE7       29.88F
$$
MNZ037-044-045-052-053-250200-
   East Central Minnesota

CITY           SKY/WX    TMP DP  RH WIND       PRES   REMARKS
PRINCETON      PTCLDY    75  64  69 CALM      29.89S
MORA           CLOUDY    70  59  68 CALM      29.91R
CAMBRIDGE        N/A     73  63  68 CALM      29.88S
RUSH CITY      PTCLDY    70  64  81 CALM      29.90R
MOOSE LAKE     CLOUDY    72  59  64 NE7       29.89R
HINCKLEY       FAIR      72  61  68 CALM      29.90R
CLOQUET        MOCLDY    55  54  94 E9        29.94R
MCGREGOR       CLOUDY    75  54  46 CALM      29.90R
$$
MNZ071>073-080-081-089-090-097-098-250200-
   Southwest Minnesota

CITY           SKY/WX    TMP DP  RH WIND       PRES   REMARKS
MONTEVIDEO     CLEAR     79  57  47 S14       29.86S
GRANITE FALLS  CLEAR     81  54  39 E5        29.86S
CANBY          CLEAR     86  47  26 CALM      29.84F
REDWOOD FALLS  CLEAR     76  51  41 E8        29.85S
OLIVIA         CLEAR     73  55  53 E9        29.85S
PIPESTONE      CLEAR     82  36  18 CALM      29.86S
WINDOM         CLEAR     81  55  41 CALM      29.86F
JACKSON        CLEAR     81  46  30 CALM      29.88S
SLAYTON        CLEAR     81  49  33 SE15      29.87S
$$
MNZ065>067-074>077-082>085-091>093-250200-
   South Central Minnesota

CITY           SKY/WX    TMP DP  RH WIND       PRES   REMARKS
MANKATO        CLEAR     82  46  28 NW3       29.86S
NEW ULM        CLEAR     75  52  43 NE10      29.86R
ST JAMES       CLEAR     79  39  24 CALM      29.86S
FAIRMONT       CLEAR     82  46  28 SE6       29.87S
GLENCOE        MOCLDY    68  63  83 E8        29.89R
FARIBAULT      MOCLDY    81  55  41 E5        29.89R
OWATONNA       CLEAR     79  55  44 S9        29.89R
WASECA         CLEAR     79  55  44 SE9       29.89S
ALBERT LEA     CLEAR     79  57  47 S6        29.90R
$$
MNZ078>079-086>088-094>096-250200-
   Southeast Minnesota

CITY           SKY/WX    TMP DP  RH WIND       PRES   REMARKS
ROCHESTER      CLEAR     76  60  57 SE7       29.91S
RED WING       CLOUDY    73  55  53 SE7       29.89R
STANTON        CLOUDY    79  54  42 CALM      29.88R
DODGE CENTER   CLEAR     79  55  44 S6        29.91R
WINONA         CLEAR     77  59  53 E3        29.90S
AUSTIN         CLEAR     75  61  60 S3        29.90S
PRESTON        CLEAR     76  58  52 SE3       29.92S
$$
ABBREVIATIONS USED IN REMARKS
   TC - TEMPERATURES IN CELSIUS
  WCI - WIND CHILL INDEX
   HX - HEAT INDEX
  VSB - VISIBILITY
$$




USA.gov is the U.S. government's official web portal to all federal, state and local government web resources and services.